Flag for U.S.A. Weather past 2 weeks in Santa Clarita, California, U.S.A.

Now
54 °F

Passing clouds.


Feels Like: 54 °F
Forecast: 53 / 71 °F
Wind: 3 mph from North

Location: Van Nuys Airport

Current Time: May 23, 2015 at 8:16:50 AM

Latest Report: May 23, 2015 at 6:51 AM


Visibility: 10 mi

Pressure: 30.06 "Hg

Humidity: 83%

Dew point: 49 °F

Location of Santa ClaritaLocation

Historic Weather in Santa Clarita — Graph

°F

Santa Clarita temperature yesterday

Maximum temperature yesterday: 65 °F (at 12:51 PM)
Minimum temperature yesterday: 56 °F (at 2:51 AM)
Average temperature yesterday: 60 °F

Past Weeks' High & Low Weather Summary

 TemperatureHumidityPressure
High84 °F (May 11, 2:51 PM)92% (May 15, 4:51 AM)30.06 "Hg (May 15, 4:51 AM)
Low49 °F (May 8, 6:51 AM)18% (May 11, 1:51 PM)29.76 "Hg (May 11, 6:51 PM)
Average61 °F63%29.94 "Hg
* Reported May 8 6:51 AM — May 23 6:51 AM, Santa Clarita, Weather by CustomWeather, © 2015

Note: Actual official high and low records may vary slightly from our data, if they occured in-between our weather recording intervals... More about our weather records

Advertising

Santa Clarita weather history for previous 24 hours

 ConditionsComfort  
Time TempWeatherWind HumidityBarometerVisibility
6:51 AM
Sat, May 23
54 °FSunny.3 mph83%30.06 "Hg10 mi
5:51 AM54 °FPassing clouds.No wind83%30.04 "Hg10 mi
4:51 AM55 °FClear.No wind80%30.03 "Hg10 mi
3:51 AM55 °FClear.3 mph80%30.03 "Hg10 mi
2:51 AM56 °FPassing clouds.No wind81%30.03 "Hg10 mi
1:51 AM57 °FPassing clouds.3 mph78%30.03 "Hg10 mi
12:51 AM59 °FMostly cloudy.5 mph72%30.03 "Hg10 mi
11:51 PM
Fri, May 22
59 °FOvercast.3 mph72%30.04 "Hg10 mi
10:51 PM60 °FOvercast.5 mph69%30.05 "Hg10 mi
9:51 PM60 °FPassing clouds.5 mph67%30.04 "Hg10 mi
8:51 PM60 °FOvercast.3 mph72%30.03 "Hg10 mi
7:51 PM61 °FPartly sunny.6 mph70%30.02 "Hg10 mi
6:51 PM62 °FOvercast.7 mph60%29.99 "Hg10 mi
5:51 PM64 °FMostly cloudy.8 mph52%29.98 "Hg10 mi
4:51 PM63 °FOvercast.8 mph54%29.98 "Hg10 mi
3:51 PM64 °FOvercast.7 mph52%29.98 "Hg10 mi
2:51 PM65 °FOvercast.7 mph47%29.98 "Hg10 mi
1:51 PM64 °FPartly sunny.7 mph50%29.99 "Hg10 mi
12:51 PM65 °FMostly cloudy.7 mph51%29.99 "Hg10 mi
11:51 AM64 °FOvercast.9 mph54%30.00 "Hg10 mi
10:51 AM64 °FBroken clouds.3 mph52%29.99 "Hg10 mi
9:51 AM62 °FBroken clouds.No wind60%29.99 "Hg10 mi
8:51 AM58 °FPartly sunny.No wind70%29.99 "Hg10 mi
Weather by CustomWeather, © 2015

See weather overviewHow to use our weather pages